STARLINK-1823 (46720 NORAD) Tracking and Keplerian Element Data

This shows tracking and keplerian element data for the satellite.

Feedback or suggestion? Click here.




ElementValue
Catalog46720
NameSTARLINK-1823
Epoch Orbit729
Epoch Day335.83336806
Epoch Year2020
RAAN256.2687
Inclination53.0555
Eccentricity0.0001071
Argument of Perigee59.5163
Mean Anonmoly54.6499
Mean Motion15.62699357
Decay Rate0.00139992
L11 46720U 20073BC 20335.83336806 .00139992 00000-0 15117-2 0 9991
L22 46720 53.0555 256.2687 0001071 59.5163 54.6499 15.62699357 7296

Live tracking and technical data element details for STARLINK-1823 (NORAD 46720). STARLINK-1823 can be tracked NOW for your location showing map with azimuth and elevation plus other details from your city location.

Track the satellite on the map from your city or location and see movement details for azimuth, elevation, latitude, longitude, range, height, and movement on the map or in text.







IsCatalogInMostPopularTable: catalog: 46720, numindb: 10
Update: records affected: 1



GetName: 46720 STARLINK-1823

Hit Count: updated at: Wed, 02 Dec 2020 06:01:07 GMT